Location: Allos
(44.2333°N, 6.6333°E)
Time: 11:55:04
(UTC+00:00)

Cosmos 2366 rocket - Pass Details

Date: 01 December 2020
Orbit: 955 x 997 km, 82.9° (Epoch: 26 January)

Event Time Altitude Azimuth Distance (km) Brightness Sun altitude
Rises 16:29:55 0° 356° (N) 3,665 6.8 -6.2°
Reaches altitude 10° 16:32:34 10° 3° (N) 2,709 6.1 -6.7°
Maximum altitude 16:38:30 46° 76° (ENE) 1,265 4.2 -7.7°
Drops below altitude 10° 16:44:21 10° 149° (SSE) 2,678 6.2 -8.6°
Sets 16:46:56 0° 155° (SSE) 3,619 7.0 -9.0°
